CW1172 Weather Reports


Display with metric or nautical units.
time (UTC)temp
F
wind
direction
speed
MPH
gust
MPH
rain 1hr
in
rain 24hr
in
rain mn
in
humidity
%
barometer
mb
20260504043055 47 215 0.0 0.0 0.00 0.00 0.00 90 1004.2
20260504041546 47 225 0.0 0.0 0.00 0.00 0.00 91 1004.2
20260504040048 47 360 0.0 0.0 0.00 0.00 0.00 91 1004.2
20260504034555 47 218 0.0 0.0 0.00 0.00 0.00 92 1004.2
20260504033044 48 191 0.0 0.0 0.00 0.00 0.00 92 1004.2
20260504031543 48 196 0.0 0.0 0.00 0.00 0.00 92 1004.3
20260504030040 48 197 0.0 0.0 0.00 0.00 0.00 92 1004.4
20260504024548 48 211 0.0 0.0 0.00 0.00 0.00 92 1004.5
20260504023041 49 179 0.0 0.0 0.00 0.00 0.00 92 1004.7
20260504021541 49 182 0.0 0.0 0.00 0.00 0.00 92 1004.9
20260504020041 49 180 0.0 0.0 0.00 0.00 0.00 92 1004.9
20260504014538 49 178 0.0 0.0 0.00 0.00 0.00 92 1005.0
20260504013046 49 178 0.0 0.0 0.00 0.00 0.00 92 1005.0
20260504011532 49 178 0.0 0.0 0.00 0.00 0.00 92 1005.3
20260504010032 49 179 0.0 0.0 0.00 0.00 0.00 91 1005.4
20260504004531 49 179 0.0 0.0 0.00 0.00 0.00 91 1005.4
20260504003029 49 179 0.0 0.0 0.00 0.00 0.00 91 1005.5
20260504001535 49 179 0.0 0.0 0.00 0.00 0.00 91 1005.6
20260504000027 50 178 0.0 0.0 0.00 0.00 0.00 91 1005.8
20260503234529 50 178 0.0 0.0 0.00 0.00 0.00 91 1006.0
20260503233024 50 178 0.0 0.0 0.00 0.00 0.00 91 1006.1
20260503231526 50 179 0.0 0.0 0.00 0.00 0.00 91 1006.2
20260503230036 50 178 0.0 0.0 0.00 0.00 0.00 91 1006.2
20260503224523 50 179 0.0 0.0 0.00 0.00 0.00 91 1006.3
20260503223023 50 179 0.0 0.0 0.00 0.00 0.00 91 1006.5
20260503221524 50 178 0.0 0.0 0.00 0.00 0.00 91 1006.6
20260503220021 50 179 0.0 0.0 0.00 0.00 0.00 91 1006.6
20260503214535 49 179 0.0 0.0 0.00 0.00 0.00 91 1006.8
20260503213020 49 178 0.0 0.0 0.00 0.00 0.00 90 1006.9
20260503211518 48 179 0.0 0.0 0.00 0.00 0.00 90 1007.0
20260503210018 48 179 0.0 0.0 0.00 0.00 0.00 90 1007.1
20260503204518 48 179 0.0 0.0 0.00 0.00 0.00 90 1007.2
20260503203022 47 178 0.0 0.0 0.00 0.00 0.00 89 1007.2
20260503201519 47 199 0.0 0.0 0.00 0.00 0.00 88 1007.2
20260503200017 47 200 0.0 0.0 0.00 0.00 0.00 87 1007.3
20260503194514 48 200 0.0 0.0 0.00 0.00 0.00 87 1007.6
20260503193023 48 200 0.0 0.0 0.00 0.00 0.00 86 1007.7
20260503191527 49 200 0.0 0.0 0.00 0.00 0.00 85 1007.8
20260503190024 51 199 0.0 0.0 0.00 0.00 0.00 84 1007.8
20260503184512 51 199 0.0 0.0 0.00 0.00 0.00 84 1007.7
20260503183012 52 199 0.0 0.0 0.00 0.00 0.00 84 1007.7
20260503181512 52 202 0.0 0.0 0.00 0.00 0.00 83 1007.7
20260503180011 53 186 0.0 0.0 0.00 0.00 0.00 82 1007.7
20260503174509 53 186 0.0 0.0 0.00 0.00 0.00 81 1007.6
20260503173009 53 183 0.0 0.0 0.00 0.00 0.00 81 1007.9
20260503171507 53 180 0.0 0.0 0.00 0.00 0.00 82 1008.0
20260503100106 50 236 0.0 0.0 0.00 0.00 0.00 92 1009.2
20260503081503 50 187 0.0 0.0 0.00 0.00 0.00 91 1009.0
20260503071613 50 184 0.0 0.0 0.00 0.00 0.00 91 1008.5
20260503054611 49 360 0.0 0.0 0.00 0.00 0.00 90 1008.2
20260503053056 49 219 0.0 0.0 0.00 0.00 0.00 90 1008.3
20260503051557 49 218 0.0 0.0 0.00 0.00 0.00 90 1008.2
20260503050057 49 211 0.0 0.0 0.00 0.00 0.00 89 1008.2
20260503044556 49 273 0.0 0.0 0.00 0.00 0.00 89 1008.2